STARLINK-11189, 60188

Orbit data source: Space-Track

STARLINK-11189, 60188 is a payload satellite owned by SpaceX/Seattle (US) in LEO that was launched on Wed, 03 Jul 2024 UTC via an FALCON 9 launch vehicle from the Air Force Eastern Test Range (AFETR). Payload-class satellites include a variety of spacecraft equipped with specific instruments for various scientific and technological missions. These include communications satellites like Starlink; space stations such as the ISS; scientific satellites like the Hubble; Earth observation satellites from companies like Planet Labs, Umbra, and HawkEye 360; GPS; miniature CubeSats for education and research; and military/defense satellites.

Loading next visibility...
Identifier
60188, 2024-124F
Orbit
LEO
Country
Flag of USUS
Related business
Manufacturer
SpaceX/Seattle
Mission
Operational Commercial Communications
Bus & Motor
STARLINK V2MD, Unknown motor
Mass
960 kg wet, ~910 kg dry
Launch date (UTC)
2024-07-03 (1 year ago)
Launch vehicle
FALCON 9
Launch site
Air Force Eastern Test Range (AFETR)
Object type
Payload
Rocket body
Debris
Shape & HBR
Box + 2 Pan, 14.5 m
Radar Cross Section
36.964 m², Large (>1 m²)

Expand to show TLE details & history
Last TLE update: 2 days ago

TLE from 2 days ago
0 STARLINK-11189
1 60188U 24124F   25257.41869114 -.00000707  00000-0 -98199-6 0  9999
2 60188  53.1585 310.5803 0000622  75.8329 284.2758 15.69693359 68844
Epoch: 2025-09-14T10:02Z
TLE epoch observation values (Epoch: 2025-09-14T10:02:54.914Z)
Latitude
-0.00002°
Longitude
166.2135°
Altitude
360.586 km
Speed
7.694 km/s
True Right ascension
20h 42m 19s
True Declination
0° 00' 00"
Sunlit
Object was in full shadow at epoch
Visualization orbit readout
Latitude
Unknown
Longitude
Unknown
Altitude
Unknown
Speed
Unknown
Apparent Right ascension
Unknown
Apparent Declination
Unknown
Sunlit
N/A
Visualization observer readout
Local Sidereal Time
05:01:12
Azimuth
Unknown
Elevation
Unknown
Doppler factor
Unknown
Orbital elements
Apogee altitude
360.454 km
Perigee altitude
359.616 km
Semi-major axis
6,738.172 km
Eccentricity
0.00006
Inclination
53.1585°
RAAN
310.5803°
Arg. of periapsis
75.8329°
True anomaly
284.26889°
Mean anomaly
284.2758°
Eccentric anomaly
284.27235°
Mean motion
3.92401 °/min
Orbital period
91.74 mins
BSTAR
-9.8199e-7
Loading maneuver chart data...
Computing Atmospheric mass density...
Loading historical data...
Loading historical data...
Loading historical data...
Loading historical data...
Loading historical data...
Loading historical data...
Loading historical data...

Documentation

Showing up to 5 results
|